1499637600.04,6207,19.25,74388.0,6.45,-15.67,-17.49,0,*47
1499637601.25,6208,19.25,74384.0,6.45,-15.71,-17.59,0,*4E
1499637602.47,6209,19.25,74388.0,6.45,-15.71,-17.59,0,*4F
1499637603.72,6210,19.25,74388.0,6.47,-15.71,-17.59,0,*45
1499637604.96,6211,19.25,74386.0,6.47,-15.71,-17.59,0,*44
1499637606.2,6212,19.25,74388.5,6.47,-15.81,-17.69,0,*4B
1499637607.43,6213,19.25,74388.0,6.49,-15.75,-17.55,0,*40
1499637608.67,6214,19.25,74390.0,6.49,-15.81,-17.63,0,*49
1499637609.91,6215,19.25,74390.0,6.51,-15.71,-17.55,0,*4B
1499637611.16,6216,19.25,74386.5,6.49,-15.81,-17.59,0,*42
1499637612.38,6217,19.25,74390.8,6.49,-15.75,-17.63,0,*41
1499637613.63,6218,19.25,74388.5,6.51,-15.89,-17.69,0,*4E
1499637614.85,6219,19.25,74392.3,6.49,-15.85,-17.73,0,*41
1499637616.07,6220,19.25,74394.8,6.49,-15.95,-17.63,0,*4B
1499637617.31,6221,19.25,74394.8,6.49,-15.85,-17.63,0,*4B
1499637618.53,6222,19.25,74388.5,6.49,-15.89,-17.73,0,*45
1499637619.75,6223,19.25,74390.5,6.49,-15.85,-17.73,0,*48
1499637620.99,6224,19.25,74388.8,6.49,-15.85,-17.79,0,*45
1499637622.22,6225,19.25,74390.0,6.51,-16.03,-17.87,0,*41
1499637623.44,6226,19.25,74384.8,6.49,-16.23,-18.07,0,*4E
1499637624.69,6227,19.25,74384.3,6.49,-16.09,-17.93,0,*45
1499637625.92,6228,19.25,74384.3,6.49,-16.09,-17.87,0,*4F
1499637627.16,6229,19.25,74386.8,6.51,-16.03,-17.97,0,*4C
1499637628.39,6230,19.25,74394.5,6.49,-16.23,-18.07,0,*49
1499637629.63,6231,19.25,74388.8,6.51,-15.95,-17.93,0,*4D
1499637630.82,6232,19.25,74390.5,6.49,-15.99,-17.87,0,*4E
1499637632.01,6233,19.25,74386.5,6.49,-15.99,-17.87,0,*4F
1499637633.26,6234,19.25,74390.3,6.49,-16.09,-17.93,0,*47
1499637634.49,6235,19.25,74390.5,6.49,-16.09,-17.87,0,*43
1499637635.68,6236,19.25,74388.5,6.49,-15.99,-17.87,0,*4A
1499637636.91,6237,19.25,74390.8,6.49,-16.09,-17.87,0,*41
1499637638.13,6238,19.25,74394.8,6.49,-15.85,-17.73,0,*42
1499637639.34,6239,19.25,74394.8,6.49,-15.99,-17.93,0,*40
1499637640.53,6240,19.25,74394.3,6.49,-15.99,-17.83,0,*4F
1499637641.75,6241,19.25,74394.8,6.51,-15.95,-17.73,0,*44
1499637642.97,6242,19.25,74392.8,6.49,-15.95,-17.79,0,*44
1499637644.22,6243,19.25,74390.3,6.51,-15.89,-17.69,0,*40
1499637645.47,6244,19.25,74384.5,6.51,-15.89,-17.73,0,*4C
1499637646.65,6245,19.25,74386.3,6.49,-15.99,-17.73,0,*45
1499637647.85,6246,19.25,74388.0,6.49,-15.95,-17.87,0,*41
1499637649.1,6247,19.25,74386.8,6.51,-15.81,-17.69,0,*4C
1499637650.34,6248,19.25,74390.8,6.51,-15.89,-17.73,0,*40
1499637651.59,6249,19.25,74390.0,6.51,-15.81,-17.69,0,*42
1499637652.82,6250,19.25,74392.8,6.51,-15.95,-17.83,0,*4B
1499637654.06,6251,19.25,74392.0,6.51,-15.89,-17.73,0,*48
1499637655.31,6252,19.25,74394.0,6.51,-15.89,-17.73,0,*4B
1499637656.53,6253,19.25,74390.8,6.51,-15.95,-17.73,0,*47
1499637657.77,6254,19.25,74384.8,6.51,-15.71,-17.59,0,*42
1499637659.02,6255,19.25,74388.0,6.51,-15.71,-17.55,0,*4F
1499637660.27,6256,19.25,74390.8,6.51,-15.71,-17.59,0,*40
1499637661.52,6257,19.25,74390.5,6.51,-15.75,-17.59,0,*45
1499637662.77,6258,19.25,74386.0,6.51,-15.71,-17.59,0,*4E
1499637664.02,6259,19.25,74388.3,6.51,-15.71,-17.59,0,*4F
1499637665.23,6260,19.25,74384.3,6.53,-15.71,-17.49,0,*46
1499637666.5,6261,19.25,74390.3,6.57,-15.85,-17.63,0,*40
1499637667.75,6262,19.25,74390.5,6.57,-15.67,-17.63,0,*4F
1499637668.99,6263,19.25,74392.8,6.53,-15.81,-17.69,0,*48
1499637670.23,6264,19.25,74390.5,6.53,-15.81,-17.69,0,*4F
1499637671.5,6265,19.25,74388.8,6.53,-15.81,-17.59,0,*4D
1499637672.74,6266,19.25,74388.3,6.53,-15.89,-17.73,0,*4E
1499637673.97,6267,19.25,74390.5,6.53,-15.75,-17.69,0,*47
1499637675.19,6268,19.25,74390.5,6.53,-15.71,-17.69,0,*4C
1499637676.43,6269,19.25,74386.5,6.57,-15.71,-17.55,0,*46
1499637677.68,6270,19.25,74386.8,6.57,-15.75,-17.55,0,*4A
1499637678.93,6271,19.25,74388.3,6.57,-15.67,-17.63,0,*4D
1499637680.2,6272,19.25,74390.0,6.57,-15.85,-17.63,0,*42
1499637681.45,6273,19.25,74390.3,6.57,-15.85,-17.69,0,*49
1499637682.69,6274,19.25,74390.3,6.57,-15.75,-17.63,0,*4B
1499637683.94,6275,19.25,74392.8,6.57,-15.75,-17.63,0,*4A
1499637685.17,6276,19.25,74392.5,6.59,-15.71,-17.59,0,*4A
1499637686.42,6277,19.25,74392.8,6.59,-15.85,-17.79,0,*42
1499637687.69,6278,19.25,74394.3,6.57,-15.85,-17.63,0,*48
1499637688.96,6279,19.25,74398.8,6.57,-15.85,-17.63,0,*49
1499637690.18,6280,19.25,74394.5,6.59,-15.81,-17.73,0,*44
1499637691.45,6281,19.25,74392.8,6.57,-15.85,-17.79,0,*45
1499637692.7,6282,19.25,74390.3,6.57,-15.85,-17.69,0,*47
1499637693.97,6283,19.25,74384.5,6.57,-15.89,-17.79,0,*4B
1499637695.21,6284,19.25,74390.0,6.57,-15.99,-17.93,0,*49
1499637696.46,6285,19.25,74388.8,6.53,-16.17,-17.87,0,*4C
1499637697.68,6286,19.25,74390.3,6.59,-15.95,-17.79,0,*4D
1499637698.91,6287,19.25,74392.0,6.59,-15.85,-17.73,0,*47
1499637700.13,6288,19.25,74394.3,6.59,-15.85,-17.73,0,*48
1499637701.33,6289,19.25,74394.3,6.59,-15.95,-17.87,0,*43
1499637702.56,6290,19.25,74398.0,6.59,-15.95,-17.79,0,*4A
1499637703.78,6291,19.25,74392.0,6.59,-15.85,-17.73,0,*40
1499637705.05,6292,19.25,74390.0,6.61,-15.81,-17.63,0,*4D
1499637706.31,6293,19.25,74388.3,6.61,-15.81,-17.63,0,*4C
1499637707.56,6294,19.25,74392.8,6.61,-15.95,-17.93,0,*41
1499637708.78,6295,19.25,74392.0,6.59,-16.09,-18.17,0,*4E
1499637710.03,6296,19.25,74394.0,6.59,-16.13,-17.93,0,*45
1499637711.26,6297,19.25,74392.5,6.59,-16.13,-18.07,0,*46
1499637712.51,6298,19.25,74392.0,6.59,-16.13,-18.01,0,*4F
1499637713.75,6299,19.25,74390.3,6.59,-16.13,-18.07,0,*48
1499637715.0,6300,19.25,74392.5,6.59,-16.13,-17.93,0,*4B
1499637716.25,6301,19.25,74394.3,6.59,-16.09,-17.93,0,*41
1499637717.48,6302,19.25,74394.3,6.59,-16.13,-18.07,0,*4B
1499637718.73,6303,19.25,74392.0,6.59,-16.27,-18.31,0,*48
1499637719.97,6304,19.25,74396.3,6.53,-16.51,-18.41,0,*43
1499637721.21,6305,19.25,74394.5,6.57,-16.31,-18.25,0,*42
1499637722.47,6306,19.25,74388.5,6.57,-16.31,-18.35,0,*40
1499637723.72,6307,19.25,74394.0,6.53,-16.37,-18.31,0,*47
1499637724.98,6308,19.25,74394.8,6.57,-16.41,-18.35,0,*49
1499637726.2,6309,19.25,74394.0,6.57,-16.55,-18.41,0,*4E
1499637727.42,6310,19.25,74396.3,6.53,-16.59,-18.41,0,*4E
1499637728.66,6311,19.25,74396.3,6.53,-16.51,-18.41,0,*47
1499637729.9,6312,19.25,74398.5,6.57,-16.27,-18.25,0,*43
1499637731.12,6313,19.25,74394.5,6.57,-16.45,-18.41,0,*44
1499637732.36,6314,19.25,74396.3,6.53,-16.51,-18.45,0,*46
1499637733.6,6315,19.25,74398.8,6.53,-16.51,-18.45,0,*47
1499637734.85,6316,19.25,74398.0,6.51,-16.51,-18.45,0,*46
1499637736.09,6317,19.25,74398.0,6.51,-16.51,-18.41,0,*43
1499637737.33,6318,19.25,74396.5,6.51,-16.51,-18.45,0,*48
1499637738.55,6319,19.25,74394.5,6.51,-16.45,-18.41,0,*48
1499637739.8,6320,19.25,74398.0,6.51,-16.45,-18.31,0,*45
1499637741.03,6321,19.25,74398.5,6.49,-16.41,-18.31,0,*49
1499637742.29,6322,19.25,74392.5,6.51,-16.23,-18.11,0,*45
1499637743.51,6323,19.25,74394.3,6.49,-16.37,-18.35,0,*4E
1499637744.76,6324,19.25,74394.8,6.51,-16.23,-18.11,0,*43
1499637746.0,6325,19.25,74394.3,6.49,-16.17,-18.01,0,*4D
1499637747.22,6326,19.25,74390.5,6.49,-16.27,-18.21,0,*4F
1499637748.45,6327,19.25,74394.0,6.49,-16.37,-18.31,0,*4E
1499637749.64,6328,19.25,74394.0,6.49,-16.37,-18.25,0,*44
1499637750.91,6329,19.25,74392.0,6.51,-16.23,-18.31,0,*4C
1499637752.16,6330,19.25,74392.0,6.51,-16.23,-18.17,0,*40
1499637753.43,6331,19.25,74388.8,6.51,-16.17,-17.97,0,*41
1499637754.71,6332,19.25,74392.8,6.51,-16.09,-17.97,0,*4D
1499637755.99,6333,19.25,74394.5,6.51,-16.17,-18.01,0,*43
1499637757.21,6334,19.25,74392.5,6.51,-15.95,-17.87,0,*4C
1499637758.49,6335,19.25,74398.3,6.51,-16.17,-18.01,0,*45
1499637759.73,6336,19.25,74392.3,6.49,-16.13,-17.93,0,*4F
1499637761.01,6337,19.25,74392.0,6.51,-16.09,-17.97,0,*48
1499637762.24,6338,19.25,74390.3,6.51,-15.95,-17.83,0,*44
1499637763.47,6339,19.25,74390.5,6.51,-16.03,-17.87,0,*4D
1499637764.74,6340,19.25,74390.5,6.53,-16.09,-17.97,0,*4A
1499637766.02,6341,19.25,74388.3,6.51,-16.17,-18.01,0,*46
1499637767.3,6342,19.25,74388.0,6.51,-16.09,-18.01,0,*4A
1499637768.55,6343,19.25,74390.8,6.53,-16.09,-17.87,0,*48
1499637769.79,6344,19.25,74398.3,6.53,-16.17,-18.17,0,*46
1499637771.06,6345,19.25,74392.8,6.53,-16.23,-18.31,0,*44
1499637772.32,6346,19.25,74394.0,6.51,-16.45,-18.31,0,*45
1499637773.57,6347,19.25,74396.0,6.51,-16.37,-18.31,0,*41
1499637774.79,6348,19.25,74396.3,6.51,-16.45,-18.45,0,*48
1499637776.01,6349,19.25,74394.5,6.51,-16.37,-18.41,0,*48
1499637777.26,6350,19.25,74392.8,6.51,-16.37,-18.31,0,*47
1499637778.49,6351,19.25,74394.0,6.51,-16.45,-18.45,0,*40
1499637779.71,6352,19.25,74392.3,6.49,-16.65,-18.49,0,*44
1499637780.92,6353,19.25,74398.5,6.49,-16.51,-18.45,0,*4E
1499637782.15,6354,19.25,74396.0,6.49,-16.41,-18.35,0,*4F
1499637783.42,6355,19.25,74396.5,6.51,-16.31,-18.31,0,*44
1499637784.65,6356,19.25,74396.3,6.49,-16.55,-18.35,0,*48
1499637785.9,6357,19.25,74398.3,6.51,-16.45,-18.31,0,*45
1499637787.13,6358,19.25,74398.5,6.49,-16.41,-18.35,0,*43
1499637788.35,6359,19.25,74398.8,6.49,-16.51,-18.45,0,*44
1499637789.57,6360,19.25,74400.3,6.49,-16.65,-18.49,0,*45
1499637790.79,6361,19.25,74398.3,6.49,-16.65,-18.49,0,*44
1499637792.03,6362,19.25,74398.5,6.47,-16.69,-18.69,0,*47
1499637793.25,6363,19.25,74392.5,6.47,-16.59,-18.65,0,*49
1499637794.47,6364,19.25,74394.3,6.47,-16.59,-18.65,0,*4E
1499637795.69,6365,19.25,74394.0,6.47,-16.59,-18.65,0,*4F
1499637796.92,6366,19.25,74396.8,6.47,-16.55,-18.49,0,*4E
1499637798.14,6367,19.25,74394.8,6.47,-16.55,-18.49,0,*4F
1499637799.33,6368,19.25,74394.8,6.45,-16.55,-18.49,0,*42
1499637800.55,6369,19.25,74394.0,6.47,-16.55,-18.49,0,*41
1499637801.77,6370,19.25,74392.8,6.45,-16.59,-18.55,0,*4A
1499637802.96,6371,19.25,74392.5,6.45,-16.55,-18.41,0,*42
1499637804.2,6372,19.25,74392.0,6.45,-16.31,-18.35,0,*40
1499637805.41,6373,19.25,74392.3,6.45,-16.31,-18.41,0,*42
1499637806.63,6374,19.25,74394.5,6.47,-16.55,-18.41,0,*45
1499637807.84,6375,19.25,74398.0,6.45,-16.55,-18.55,0,*43
1499637809.06,6376,19.25,74398.3,6.45,-16.55,-18.55,0,*40
1499637810.25,6377,19.25,74394.0,6.45,-16.45,-18.49,0,*4D
1499637811.48,6378,19.25,74398.0,6.45,-16.41,-18.35,0,*4D
1499637812.68,6379,19.25,74394.5,6.45,-16.31,-18.25,0,*4A
1499637813.89,6380,19.25,74390.8,6.45,-16.31,-18.25,0,*4C
1499637815.11,6381,19.25,74392.0,6.45,-16.41,-18.35,0,*4B
1499637816.3,6382,19.25,74394.8,6.45,-16.41,-18.41,0,*4B
1499637817.49,6383,19.25,74394.3,6.45,-16.45,-18.41,0,*4E
1499637818.71,6384,19.25,74394.0,6.45,-16.27,-18.11,0,*48
1499637819.92,6385,19.25,74394.0,6.45,-16.27,-18.25,0,*4E
1499637821.14,6386,19.25,74394.5,6.43,-16.37,-18.41,0,*48
1499637822.35,6387,19.25,74392.3,6.43,-16.45,-18.25,0,*4E
1499637823.57,6388,19.25,74392.8,6.43,-16.37,-18.41,0,*46
1499637824.77,6389,19.25,74396.3,6.45,-16.31,-18.25,0,*45
1499637825.99,6390,19.25,74396.0,6.43,-16.45,-18.41,0,*4A
1499637827.21,6391,19.25,74392.3,6.43,-16.45,-18.45,0,*4F
1499637828.45,6392,19.25,74392.3,6.43,-16.51,-18.41,0,*4D
1499637829.7,6393,19.25,74392.0,6.43,-16.37,-18.31,0,*4B
1499637830.91,6394,19.25,74392.3,6.43,-16.45,-18.25,0,*4C
1499637832.13,6395,19.25,74398.5,6.43,-16.37,-18.25,0,*48
1499637833.32,6396,19.25,74392.3,6.41,-16.37,-18.25,0,*49
1499637834.57,6397,19.25,74392.3,6.43,-16.37,-18.31,0,*4F
1499637835.82,6398,19.25,74392.8,6.43,-16.37,-18.31,0,*40
1499637837.03,6399,19.25,74388.3,6.43,-16.37,-18.25,0,*44
1499637838.28,6400,19.25,74394.8,6.43,-16.37,-18.31,0,*46
1499637839.5,6401,19.25,74392.5,6.43,-16.45,-18.41,0,*45
1499637840.75,6402,19.25,74394.8,6.43,-16.37,-18.31,0,*44
1499637841.97,6403,19.25,74394.0,6.43,-16.45,-18.45,0,*43
1499637843.19,6404,19.25,74392.0,6.41,-16.59,-18.55,0,*4A
1499637844.43,6405,19.25,74392.3,6.41,-16.65,-18.55,0,*44
1499637845.7,6406,19.25,74392.8,6.43,-16.51,-18.55,0,*42
1499637846.91,6407,19.25,74392.5,6.41,-16.51,-18.41,0,*44
1499637848.11,6408,19.25,74392.8,6.41,-16.59,-18.45,0,*47
1499637849.32,6409,19.25,74392.8,6.41,-16.59,-18.59,0,*4B
1499637850.57,6410,19.25,74392.8,6.41,-16.65,-18.55,0,*40
1499637851.78,6411,19.25,74394.8,6.41,-16.51,-18.41,0,*43
1499637853.0,6412,19.25,74394.5,6.41,-16.51,-18.45,0,*44
1499637854.23,6413,19.25,74392.0,6.41,-16.45,-18.31,0,*43
1499637855.45,6414,19.25,74398.0,6.41,-16.51,-18.41,0,*46
1499637856.63,6415,19.25,74396.0,6.41,-16.37,-18.25,0,*45
1499637857.86,6416,19.25,74396.3,6.41,-16.31,-18.11,0,*47
1499637859.05,6417,19.25,74392.3,6.41,-16.37,-18.17,0,*46
1499637860.27,6418,19.25,74394.0,6.41,-16.37,-18.31,0,*4D
1499637861.46,6419,19.25,74392.8,6.41,-16.37,-18.25,0,*49
1499637862.66,6420,19.25,74396.3,6.37,-16.45,-18.49,0,*4D
1499637863.85,6421,19.25,74392.3,6.41,-16.45,-18.41,0,*45
1499637865.04,6422,19.25,74398.8,6.41,-16.45,-18.41,0,*46
1499637866.27,6423,19.25,74398.3,6.41,-16.37,-18.31,0,*45
1499637867.51,6424,19.25,74394.0,6.39,-16.27,-18.17,0,*48
1499637868.73,6425,19.25,74392.5,6.41,-16.31,-18.11,0,*47
1499637869.95,6426,19.25,74392.3,6.41,-16.31,-18.11,0,*44
1499637871.14,6427,19.25,74392.0,6.37,-16.41,-18.41,0,*46
1499637872.41,6428,19.25,74394.3,6.39,-16.51,-18.35,0,*45
1499637873.67,6429,19.25,74394.0,6.39,-16.41,-18.31,0,*41
1499637874.91,6430,19.25,74392.8,6.39,-16.27,-18.17,0,*4D
1499637876.16,6431,19.25,74392.3,6.39,-16.23,-18.07,0,*49
1499637877.41,6432,19.25,74392.0,6.39,-16.37,-18.31,0,*4A
1499637878.66,6433,19.25,74394.0,6.39,-16.37,-18.35,0,*4F
1499637879.91,6434,19.25,74394.0,6.39,-16.51,-18.45,0,*4F
1499637881.13,6435,19.25,74396.0,6.39,-16.41,-18.45,0,*4F
1499637882.36,6436,19.25,74394.0,6.39,-16.41,-18.21,0,*4E
1499637883.58,6437,19.25,74392.0,6.39,-16.37,-18.21,0,*4E
1499637884.8,6438,19.25,74392.3,6.41,-16.23,-18.11,0,*48
1499637886.06,6439,19.25,74394.8,6.39,-16.41,-18.31,0,*40
1499637887.31,6440,19.25,74392.3,6.39,-16.41,-18.35,0,*4A
1499637888.56,6441,19.25,74392.0,6.39,-16.51,-18.49,0,*41
1499637889.75,6442,19.25,74388.8,6.41,-16.45,-18.41,0,*40
1499637890.98,6443,19.25,74388.5,6.39,-16.41,-18.45,0,*4E
1499637892.2,6444,19.25,74392.0,6.37,-16.45,-18.35,0,*44
1499637893.41,6445,19.25,74390.5,6.37,-16.55,-18.55,0,*42
1499637894.6,6446,19.25,74392.8,6.37,-16.45,-18.49,0,*4D
1499637895.8,6447,19.25,74388.5,6.37,-16.41,-18.21,0,*46
1499637897.01,6448,19.25,74388.3,6.37,-16.31,-18.21,0,*4E
1499637898.22,6449,19.25,74394.0,6.37,-16.31,-18.21,0,*4F
1499637899.43,6450,19.25,74392.8,6.37,-16.31,-18.25,0,*43
1499637900.65,6451,19.25,74394.8,6.37,-16.27,-18.11,0,*42
1499637901.87,6452,19.25,74388.5,6.37,-16.17,-18.07,0,*45
1499637903.11,6453,19.25,74390.3,6.39,-15.99,-17.93,0,*4D
1499637904.3,6454,19.25,74392.0,6.37,-15.99,-17.83,0,*45
1499637905.52,6455,19.25,74390.8,6.39,-15.99,-17.87,0,*4E
1499637906.73,6456,19.25,74394.3,6.37,-16.03,-17.93,0,*46
1499637907.95,6457,19.25,74392.8,6.39,-15.99,-17.87,0,*4C
1499637909.2,6458,19.25,74392.8,6.39,-15.95,-17.79,0,*4E
1499637910.44,6459,19.25,74392.8,6.39,-15.95,-17.79,0,*4F
1499637911.71,6460,19.25,74388.8,6.39,-15.81,-17.79,0,*40
1499637912.94,6461,19.25,74388.0,6.39,-15.95,-17.87,0,*45
1499637914.16,6462,19.25,74394.3,6.39,-15.99,-17.87,0,*4A
1499637915.43,6463,19.25,74390.5,6.39,-16.09,-17.93,0,*44
1499637916.7,6464,19.25,74394.8,6.39,-16.09,-17.93,0,*43
1499637917.92,6465,19.25,74394.8,6.39,-15.99,-17.87,0,*4D
1499637919.16,6466,19.25,74388.8,6.39,-15.99,-17.93,0,*4B
1499637920.43,6467,19.25,74392.3,6.39,-15.89,-17.79,0,*4F
1499637921.65,6468,19.25,74394.8,6.41,-15.85,-17.73,0,*49
1499637922.85,6469,19.25,74392.3,6.41,-16.03,-17.83,0,*4A
1499637924.05,6470,19.25,74394.8,6.41,-16.03,-17.87,0,*46
1499637925.25,6471,19.25,74394.3,6.41,-15.95,-17.83,0,*4F
1499637926.45,6472,19.25,74394.8,6.41,-16.03,-17.83,0,*40
1499637927.65,6473,19.25,74392.8,6.41,-16.03,-17.87,0,*45
1499637928.85,6474,19.25,74392.5,6.41,-15.95,-17.83,0,*4A
1499637930.1,6475,19.25,74396.3,6.43,-15.89,-17.83,0,*44
1499637931.34,6476,19.25,74388.0,6.43,-15.85,-17.73,0,*44
1499637932.56,6477,19.25,74388.0,6.41,-15.71,-17.63,0,*4D
1499637933.81,6478,19.25,74388.8,6.43,-15.89,-17.69,0,*4D
1499637935.05,6479,19.25,74388.5,6.43,-15.89,-17.73,0,*47
1499637936.29,6480,19.25,74388.8,6.43,-15.89,-17.73,0,*41
1499637937.54,6481,19.25,74388.0,6.43,-15.89,-17.73,0,*40
1499637938.74,6482,19.25,74394.0,6.41,-15.95,-17.83,0,*43
1499637939.96,6483,19.25,74392.3,6.43,-16.03,-17.87,0,*48
1499637941.18,6484,19.25,74398.0,6.45,-16.17,-18.07,0,*4B
1499637942.43,6485,19.25,74392.5,6.43,-16.23,-18.11,0,*4C
1499637943.67,6486,19.25,74394.5,6.43,-16.31,-18.11,0,*4C
1499637944.94,6487,19.25,74394.5,6.43,-16.17,-18.01,0,*48
1499637946.19,6488,19.25,74384.8,6.43,-16.23,-18.11,0,*41
1499637947.42,6489,19.25,74384.8,6.43,-16.03,-17.87,0,*42
1499637948.69,6490,19.25,74388.5,6.43,-16.09,-18.01,0,*41
1499637949.93,6491,19.25,74388.0,6.43,-16.17,-18.17,0,*48
1499637951.18,6492,19.25,74388.8,6.43,-16.23,-18.11,0,*4A
1499637952.41,6493,19.25,74388.5,6.43,-16.03,-17.87,0,*49
1499637953.63,6494,19.25,74394.3,6.41,-15.89,-17.83,0,*49
1499637954.89,6495,19.25,74392.0,6.43,-16.09,-17.87,0,*45
1499637956.11,6496,19.25,74390.5,6.43,-15.95,-17.83,0,*44
1499637957.36,6497,19.25,74388.8,6.43,-16.03,-17.97,0,*4C
1499637958.61,6498,19.25,74390.3,6.43,-16.09,-17.87,0,*48
1499637959.81,6499,19.25,74386.5,6.41,-15.75,-17.73,0,*48
1499637961.03,6500,19.25,74390.3,6.45,-15.85,-17.69,0,*49
1499637962.24,6501,19.25,74386.8,6.45,-15.81,-17.69,0,*4C
1499637963.45,6502,19.25,74388.0,6.45,-15.71,-17.63,0,*4A
1499637964.67,6503,19.25,74390.5,6.45,-15.85,-17.69,0,*4A
1499637965.89,6504,19.25,74384.8,6.45,-15.67,-17.63,0,*4B
1499637967.08,6505,19.25,74384.3,6.45,-15.53,-17.49,0,*45
1499637968.32,6506,19.25,74378.3,6.47,-15.71,-17.63,0,*4C
1499637969.51,6507,19.25,74382.3,6.45,-15.67,-17.49,0,*40
1499637970.72,6508,19.25,74380.8,6.45,-15.81,-17.69,0,*45
1499637971.94,6509,19.25,74380.5,6.47,-15.67,-17.49,0,*4C
1499637973.16,6510,19.25,74384.8,6.49,-15.53,-17.45,0,*41
1499637974.41,6511,19.19,74382.8,6.47,-15.53,-17.45,0,*4E
1499637975.62,6512,19.25,74384.3,6.47,-15.67,-17.49,0,*46
1499637976.84,6513,19.25,74386.8,6.49,-15.53,-17.45,0,*42
1499637978.06,6514,19.25,74384.0,6.49,-15.75,-17.63,0,*45
1499637979.31,6515,19.25,74390.3,6.49,-15.81,-17.63,0,*4F
1499637980.55,6516,19.25,74384.3,6.49,-15.81,-17.63,0,*4C
1499637981.77,6517,19.25,74382.5,6.49,-15.67,-17.59,0,*4C
1499637982.99,6518,19.25,74384.0,6.49,-15.63,-17.59,0,*47
1499637984.23,6519,19.25,74386.3,6.49,-15.81,-17.63,0,*43
1499637985.48,6520,19.25,74390.8,6.51,-15.89,-17.69,0,*42
1499637986.7,6521,19.25,74384.8,6.49,-15.95,-17.79,0,*46
1499637987.92,6522,19.25,74384.0,6.49,-15.95,-17.79,0,*45
1499637989.16,6523,19.25,74386.8,6.49,-16.13,-17.93,0,*4D
1499637990.38,6524,19.25,74386.0,6.49,-16.27,-18.21,0,*4B
1499637991.63,6525,19.25,74388.3,6.51,-16.23,-18.21,0,*47
1499637992.86,6526,19.25,74390.3,6.51,-16.31,-18.17,0,*42
1499637994.06,6527,19.25,74388.3,6.49,-16.37,-18.21,0,*49
1499637995.28,6528,19.25,74392.3,6.47,-16.55,-18.41,0,*4A
1499637996.5,6529,19.25,74388.0,6.49,-16.27,-18.07,0,*42
1499637997.75,6530,19.25,74390.8,6.47,-16.17,-18.07,0,*47
1499637999.02,6531,19.25,74388.0,6.47,-16.13,-17.93,0,*40
1499638000.29,6532,19.25,74390.5,6.47,-16.17,-17.97,0,*43
1499638001.53,6533,19.25,74388.0,6.47,-16.27,-18.21,0,*43
1499638002.78,6534,19.25,74388.3,6.47,-16.17,-18.07,0,*43
1499638004.02,6535,19.25,74390.3,6.47,-16.27,-18.21,0,*45
1499638005.27,6536,19.25,74390.8,6.47,-16.17,-18.07,0,*41
1499638006.51,6537,19.25,74382.8,6.47,-15.89,-17.69,0,*43
1499638007.76,6538,19.25,74386.0,6.47,-15.85,-17.69,0,*40
1499638008.98,6539,19.25,74382.8,6.45,-15.85,-17.69,0,*43
1499638010.22,6540,19.25,74386.5,6.45,-15.89,-17.79,0,*40
1499638011.44,6541,19.25,74382.5,6.49,-15.85,-17.73,0,*4B
1499638012.71,6542,19.25,74390.5,6.47,-15.89,-17.79,0,*40
1499638013.94,6543,19.25,74392.3,6.47,-15.99,-17.79,0,*40
1499638015.18,6544,19.25,74392.0,6.47,-16.03,-17.93,0,*43
1499638016.45,6545,19.25,74390.0,6.47,-15.85,-17.79,0,*4B
1499638017.67,6546,19.25,74384.5,6.47,-15.99,-17.83,0,*40
1499638018.89,6547,19.25,74390.5,6.49,-15.85,-17.73,0,*4D
1499638020.15,6548,19.25,74388.3,6.51,-15.81,-17.79,0,*45
1499638021.37,6549,19.25,74386.0,6.49,-15.95,-17.79,0,*48
1499638022.62,6550,19.25,74388.8,6.51,-15.89,-17.73,0,*4E
1499638023.86,6551,19.25,74388.5,6.51,-15.89,-17.73,0,*4F
1499638025.06,6552,19.25,74390.8,6.49,-15.99,-17.87,0,*4F
1499638026.26,6553,19.25,74388.8,6.49,-15.95,-17.87,0,*42
1499638027.47,6554,19.25,74384.5,6.49,-15.81,-17.73,0,*4B
1499638028.72,6555,19.25,74388.3,6.51,-15.71,-17.63,0,*4D
1499638029.99,6556,19.25,74386.3,6.51,-15.81,-17.59,0,*48
1499638031.23,6557,19.25,74388.5,6.51,-15.81,-17.69,0,*4A
1499638032.45,6558,19.25,74388.8,6.49,-15.95,-17.79,0,*48
1499638033.67,6559,19.25,74392.3,6.49,-15.99,-17.79,0,*45
1499638034.89,6560,19.25,74390.3,6.51,-15.95,-17.83,0,*4F
1499638036.12,6561,19.25,74394.0,6.51,-15.95,-17.83,0,*4E
1499638037.34,6562,19.25,74390.3,6.51,-15.95,-17.73,0,*42
1499638038.55,6563,19.25,74390.5,6.49,-15.99,-17.79,0,*4C
1499638039.75,6564,19.25,74390.5,6.49,-15.95,-17.87,0,*46
1499638040.94,6565,19.25,74390.0,6.49,-15.99,-17.87,0,*4B
1499638042.17,6566,19.25,74390.3,6.51,-15.95,-17.83,0,*49
1499638043.4,6567,19.25,74394.0,6.51,-16.03,-17.87,0,*40
1499638044.65,6568,19.25,74392.0,6.51,-16.17,-17.87,0,*4A
1499638045.91,6569,19.25,74388.0,6.51,-16.09,-17.87,0,*44
1499638047.13,6570,19.25,74390.5,6.51,-16.03,-17.87,0,*46
1499638048.36,6571,19.25,74390.5,6.51,-16.03,-17.83,0,*43
1499638049.58,6572,19.25,74388.0,6.51,-16.03,-17.83,0,*40
1499638050.86,6573,19.25,74388.8,6.51,-16.17,-18.01,0,*41
1499638052.08,6574,19.25,74392.0,6.49,-16.23,-18.21,0,*4A
1499638053.36,6575,19.25,74388.3,6.51,-16.09,-17.97,0,*48
1499638054.55,6576,19.25,74390.8,6.49,-15.99,-17.87,0,*49
1499638055.79,6577,19.25,74388.8,6.51,-15.81,-17.73,0,*43
1499638057.04,6578,19.25,74394.3,6.51,-15.89,-17.83,0,*4B
1499638058.24,6579,19.25,74392.0,6.49,-15.99,-17.87,0,*46
1499638059.49,6580,19.25,74390.3,6.51,-15.89,-17.69,0,*48
1499638060.7,6581,19.25,74392.0,6.49,-15.95,-17.79,0,*4C
1499638061.93,6582,19.25,74390.0,6.51,-16.03,-17.87,0,*4B
1499638063.21,6583,19.25,74392.5,6.51,-16.09,-18.01,0,*41
1499638064.45,6584,19.25,74392.0,6.49,-16.13,-17.93,0,*40
1499638065.68,6585,19.25,74392.0,6.51,-16.03,-17.87,0,*4C
1499638066.95,6586,19.25,74396.8,6.51,-16.17,-18.01,0,*4B
1499638068.23,6587,19.25,74396.3,6.51,-16.09,-17.97,0,*45
1499638069.48,6588,19.25,74396.0,6.49,-16.23,-18.01,0,*4B
1499638070.73,6589,19.25,74394.5,6.51,-15.95,-17.97,0,*4D
1499638071.95,6590,19.25,74394.3,6.51,-15.95,-17.87,0,*44
1499638073.21,6591,19.25,74396.5,6.51,-15.89,-17.83,0,*4C
1499638074.46,6592,19.25,74398.0,6.49,-16.09,-18.01,0,*48
1499638075.73,6593,19.25,74394.8,6.53,-16.09,-18.01,0,*42
1499638077.01,6594,19.25,74394.0,6.51,-16.09,-17.97,0,*47
1499638078.23,6595,19.25,74394.8,6.49,-15.99,-17.79,0,*45
1499638079.45,6596,19.25,74394.0,6.49,-16.09,-17.87,0,*4D
1499638080.68,6597,19.25,74390.0,6.51,-16.03,-17.87,0,*4F
1499638081.93,6598,19.25,74386.3,6.51,-15.81,-17.83,0,*4D
1499638083.18,6599,19.25,74386.0,6.51,-15.89,-17.73,0,*4B
1499638084.4,6600,19.25,74386.3,6.51,-15.95,-17.83,0,*4A
1499638085.65,6601,19.25,74388.3,6.51,-15.89,-17.73,0,*49
1499638086.88,6602,19.25,74390.8,6.51,-15.95,-17.83,0,*48
1499638088.16,6603,19.25,74394.3,6.51,-16.09,-17.97,0,*4A
1499638089.43,6604,19.25,74390.5,6.51,-16.17,-18.01,0,*42
1499638090.68,6605,19.25,74392.8,6.49,-16.13,-18.01,0,*4E
1499638091.96,6606,19.25,74386.8,6.51,-16.09,-17.97,0,*4F
1499638093.21,6607,19.25,74392.3,6.51,-16.17,-18.11,0,*40
1499638094.49,6608,19.25,74392.0,6.51,-16.09,-18.01,0,*41
1499638095.75,6609,19.25,74394.5,6.51,-16.09,-17.87,0,*41
1499638096.94,6610,19.25,74392.0,6.49,-15.99,-17.83,0,*4E
1499638098.17,6611,19.25,74388.3,6.51,-15.95,-17.87,0,*4E
1499638099.4,6612,19.25,74390.0,6.49,-16.09,-17.87,0,*42
1499638100.63,6613,19.25,74388.8,6.49,-16.09,-17.87,0,*43
1499638101.82,6614,19.25,74394.0,6.49,-15.99,-17.83,0,*4A
1499638103.06,6615,19.25,74394.8,6.51,-15.81,-17.69,0,*4F
1499638104.31,6616,19.19,74386.3,6.51,-15.81,-17.73,0,*47
1499638105.53,6617,19.25,74390.0,6.51,-15.95,-17.87,0,*48
1499638106.81,6618,19.19,74390.0,6.51,-16.17,-17.97,0,*4F
1499638108.03,6619,19.25,74396.3,6.49,-16.17,-18.07,0,*41
1499638109.32,6620,19.25,74394.3,6.51,-16.09,-17.97,0,*4B